Tracking 28790 objects as of 18-Apr-2024
HD Live streaming from Space Station
objects crossing your sky now

IRIDIUM 33 DEB

Track IRIDIUM 33 DEB now!
10-day predictions


NORAD ID: 34350
Int'l Code: 1997-051ES
Perigee: 743.3 km
Apogee: 773.1 km
Inclination: 86.3 °
Period: 99.8 minutes
Semi major axis: 7129 km
RCS: 0.064 m2 (small)
Launch date: September 14, 1997
Source: United States (US)
Launch site: TYURATAM MISSILE AND SPACE COMPLEX (TTMTR)

Note: This is SATELLITE DEBRIS
Your satellite tracking list
Your tracking list is empty




NASA's NSSDC Master Catalog

Two Line Element Set (TLE):
1 34350U 97051ES  24109.47179795  .00003924  00000-0  11817-2 0  9990
2 34350  86.3250 263.8105 0020926 342.2417  76.2627 14.42254240795872
Source of the keplerian elements: AFSPC